This demonstration page uses our WeatherBlox Daily Observations layout. Learn more.

38.89511, -77.03637

Hourly Observations for February 13, 2020

Temp ( °F °C ) Dew Point ( °F °C ) Humidity (%) Winds ( mph kmh ) Pressure ( in mb ) Visibility ( mi km ) Precip ( " mm )
12:15 am 00:15 Cloudy 42 5.6 39 3.9 89 89 S 14 22 29.91 1013 10 16.0934 0 0
12:52 am 00:52 Cloudy with Mist and Fog 42 5.6 40 4.4 92 92 S 15 24 29.88 1012 6 9.65604 0 0
1:05 am 01:05 Cloudy with Mist and Fog 41 5 40 4.4 96 96 SSE 9 15 29.87 1012 5 8.0467 0 0
1:52 am 01:52 Cloudy with Light Drizzle 42 5.6 40 4.4 92 92 WSW 5 7 29.89 1012 4 6.43736 0.001 0.001
2:52 am 02:52 Cloudy with Light Rain 42 5.6 41 5 96 96 SSW 8 13 29.83 1010 6 9.65604 0.04 1.016
3:27 am 03:27 Cloudy with Light Rain 42 5.6 41 5 96 96 S 14 22 29.77 1008 10 16.0934 0.02 0.508
3:52 am 03:52 Cloudy 42 5.6 41 5 96 96 SSW 9 15 29.77 1008 10 16.0934 0.02 0.508
4:52 am 04:52 Cloudy 43 6.1 41 5 93 93 S 7 11 29.72 1006 10 16.0934 0 0
5:23 am 05:23 Cloudy 44 6.7 42 5.6 93 93 S 7 11 29.72 1006 10 16.0934 0 0
5:40 am 05:40 Cloudy with Light Rain 44 6.7 42 5.6 93 93 SSW 7 11 29.73 1007 10 16.0934 0.001 0.001
5:52 am 05:52 Cloudy with Light Rain 44 6.7 42 5.6 93 93 S 3 6 29.71 1006 9 14.48406 0.001 0.001
6:52 am 06:52 Cloudy with Light Rain 45 7.2 43 6.1 93 93 S 8 13 29.74 1007 6 9.65604 0.03 0.762
7:05 am 07:05 Cloudy with Light Rain 45 7.2 43 6.1 93 93 S 8 13 29.74 1007 4 6.43736 0.03 0.762
7:50 am 07:50 Cloudy with Light Rain 45 7 45 7 100 100 S 15 24 29.71 1006 4 6.43736 0.06 1.524
7:52 am 07:52 Cloudy with Light Rain 45 7.2 44 6.7 97 97 S 14 22 29.71 1006 4 6.43736 0.06 1.524
8:22 am 08:22 Cloudy with Mist and Fog 46 7.8 45 7.2 96 96 SSW 12 19 29.7 1006 4 6.43736 0.02 0.508
8:52 am 08:52 Cloudy with Light Rain 48 8.9 47 8.3 96 96 S 15 24 29.71 1006 6 9.65604 0.03 0.762
9:52 am 09:52 Cloudy with Rain 51 10.6 49 9.4 92 92 SSW 17 28 29.68 1005 4 6.43736 0.07 1.778
10:35 am 10:35 Cloudy 50 10 49 9.4 96 96 S 15 24 29.64 1004 10 16.0934 0.01 0.254
10:52 am 10:52 Cloudy with Light Rain 51 10.6 50 10 96 96 S 21 33 29.62 1003 10 16.0934 0.01 0.254
11:52 am 11:52 Cloudy 55 12.8 52 11.1 90 90 SSW 18 30 29.65 1004 10 16.0934 0.02 0.508
12:52 pm 12:52 Cloudy 55 12.8 53 11.7 93 93 S 13 20 29.62 1003 10 16.0934 0.001 0.001
12:56 pm 12:56 Cloudy with Light Rain 55 12.8 53 11.7 93 93 SSW 14 22 29.64 1004 10 16.0934 0.001 0.001
1:52 pm 13:52 Cloudy 56 13.3 54 12.2 93 93 NW 6 9 29.64 1004 10 16.0934 0.01 0.254
2:33 pm 14:33 Cloudy with Light Rain 56 13.3 52 11.1 87 87 WNW 9 15 29.69 1005 7 11.26538 0.001 0.001
2:40 pm 14:40 Cloudy with Light Rain 56 13.3 52 11.1 87 87 WNW 6 9 29.67 1005 4 6.43736 0.001 0.001
2:52 pm 14:52 Cloudy with Light Rain 56 13.3 52 11.1 87 87 NW 8 13 29.66 1005 7 11.26538 0.01 0.254
3:13 pm 15:13 Cloudy 56 13.3 52 11.1 87 87 VRB 3 6 29.66 1004 10 16.0934 0.001 0.001
3:52 pm 15:52 Mostly Cloudy 56 13.3 51 10.6 84 84 W 7 11 29.7 1006 10 16.0934 0.001 0.001
4:52 pm 16:52 Cloudy 56 13.3 48 8.9 75 75 NW 14 22 29.75 1007 10 16.0934 0 0
5:52 pm 17:52 Cloudy 53 11.7 41 5 64 64 NW 24 39 29.81 1010 10 16.0934 0 0
6:52 pm 18:52 Mostly Cloudy 50 10 36 2.2 59 59 NW 22 35 29.88 1012 10 16.0934 0 0
7:52 pm 19:52 Partly Cloudy 48 8.9 33 0.6 56 56 NW 15 24 29.94 1014 10 16.0934 0 0
8:52 pm 20:52 Mostly Clear 46 7.8 33 0.6 61 61 NW 12 19 29.98 1015 10 16.0934 0 0
9:52 pm 21:52 Mostly Cloudy 45 7.2 30 -1.1 56 56 NW 20 31 30.01 1016 10 16.0934 0 0
10:52 pm 22:52 Partly Cloudy 44 6.7 27 -2.8 51 51 NW 9 15 30.05 1018 10 16.0934 0 0
11:52 pm 23:52 Cloudy 44 6.7 27 -2.8 51 51 NW 12 19 30.07 1018 10 16.0934 0 0

Powered by AerisWeather